Location: Bannatyne
(13.0833°N, 59.5333°W)
Time: 03:19:43
(UTC+00:00)

Vanguard 3 - Pass Details

Date: 01 February 2020
Orbit: 508 x 3263 km, 33.3° (Epoch: 16 February)

Event Time Altitude Azimuth Distance (km) Brightness Sun altitude
Rises 22:19:37 0° 294° (WNW) 6,941 12.8 -5.7°
Reaches altitude 10° 22:24:47 10° 302° (WNW) 6,098 12.2 -6.9°
Maximum altitude 22:42:53 40° 6° (N) 4,072 10.5 -11.1°
Enters shadow 22:55:46 16° 66° (ENE) 4,820 10.4 -14.1°
Drops below altitude 10° 22:57:52 10° 71° (ENE) 5,133 - -14.6°
Sets 23:01:42 0° 79° (E) 5,800 - -15.5°
